FW6114 Weather Reports


Display with metric or nautical units.
time (UTC)temp
F
wind
direction
speed
MPH
gust
MPH
rain 1hr
in
rain 24hr
in
rain mn
in
humidity
%
barometer
mb
20260510151527 46 295 1.0 10.0 0.02 0.42 0.24 85 1012.1
20260510150018 46 312 0.0 7.0 0.06 0.42 0.24 84 1011.9
20260510144607 46 269 0.0 8.0 0.06 0.41 0.23 86 1011.9
20260510143030 46 327 0.0 5.0 0.06 0.41 0.23 86 1012.0
20260510141504 47 355 6.0 16.0 0.05 0.39 0.21 83 1012.1
20260510140038 47 305 0.0 8.0 0.08 0.36 0.18 86 1011.3
20260510134511 47 269 1.0 11.0 0.08 0.35 0.17 84 1011.4
20260510133043 47 281 0.0 11.0 0.08 0.35 0.17 84 1011.5
20260510131526 47 346 0.0 8.0 0.07 0.35 0.17 82 1011.7
20260510130059 48 291 1.0 7.0 0.01 0.28 0.10 81 1011.4
20260510124536 50 276 1.0 12.0 0.02 0.28 0.09 80 1011.1
20260510123010 49 281 1.0 9.0 0.02 0.28 0.09 83 1011.3
20260510121543 47 5 0.0 10.0 0.02 0.28 0.09 84 1011.6
20260510120023 47 298 1.0 15.0 0.03 0.28 0.09 80 1011.8
20260510114510 50 296 3.0 15.0 0.01 0.25 0.07 80 1011.5
20260510113005 51 277 6.0 14.0 0.01 0.25 0.07 78 1011.4
20260510111541 49 297 1.0 9.0 0.01 0.25 0.07 85 1011.7
20260510110046 49 268 4.0 11.0 0.02 0.24 0.06 79 1011.8
20260510104524 49 283 1.0 7.0 0.02 0.24 0.06 83 1011.8
20260510103018 47 294 0.0 4.0 0.03 0.24 0.06 84 1012.2
20260510101602 46 300 0.0 0.0 0.06 0.24 0.06 85 1012.5
20260510100054 46 308 0.0 4.0 0.04 0.23 0.05 84 1012.5
20260510094550 46 283 0.0 6.0 0.03 0.22 0.04 85 1012.5
20260510093021 45 273 1.0 10.0 0.02 0.21 0.03 83 1012.5
20260510091512 47 291 2.0 7.0 0.00 0.19 0.01 81 1012.4
20260510090050 48 335 3.0 16.0 0.00 0.19 0.01 75 1012.3
20260510084542 47 284 0.0 4.0 0.00 0.19 0.01 76 1012.2
20260510083036 47 288 0.0 8.0 0.00 0.19 0.01 76 1012.1
20260510081537 47 289 0.0 6.0 0.00 0.19 0.01 77 1012.1
20260510080039 47 288 0.0 9.0 0.00 0.19 0.01 77 1012.2
20260510074517 47 277 0.0 10.0 0.00 0.19 0.01 76 1012.1
20260510073013 47 288 1.0 11.0 0.00 0.19 0.01 78 1011.9
20260510071550 46 306 1.0 8.0 0.00 0.19 0.01 79 1011.9
20260510070022 45 341 1.0 8.0 0.00 0.19 0.01 80 1012.0
20260510064601 45 306 1.0 8.0 0.00 0.19 0.01 80 1012.0
20260510063037 45 280 0.0 5.0 0.00 0.19 0.01 79 1011.9
20260510061508 44 287 0.0 7.0 0.00 0.19 0.01 79 1011.8
20260510060047 44 319 1.0 10.0 0.00 0.19 0.01 80 1011.7
20260510054517 44 275 0.0 5.0 0.00 0.19 0.01 79 1011.4
20260510053054 44 237 0.0 6.0 0.00 0.19 0.01 80 1011.4
20260510051526 44 273 0.0 8.0 0.00 0.19 0.01 80 1011.4
20260510050108 44 283 1.0 8.0 0.00 0.19 0.01 79 1011.1
20260510044529 44 304 0.0 8.0 0.00 0.19 0.01 81 1011.0
20260510043007 45 265 3.0 14.0 0.01 0.19 0.01 80 1010.9
20260510041545 44 313 2.0 11.0 0.01 0.19 0.01 83 1010.9
20260510040023 44 254 4.0 14.0 0.01 0.19 0.01 84 1010.9
20260510034555 45 279 1.0 9.0 0.01 0.19 0.01 83 1011.1
20260510033043 45 301 1.0 12.0 0.00 0.18 0.00 81 1011.3
20260510031513 45 321 0.0 10.0 0.00 0.18 0.00 81 1011.4
20260510030050 45 276 2.0 8.0 0.00 0.18 0.00 80 1011.4
20260510024524 45 275 1.0 9.0 0.00 0.18 0.00 79 1011.4
20260510023001 45 290 0.0 6.0 0.00 0.18 0.00 79 1011.6
20260510021630 45 329 2.0 8.0 0.00 0.18 0.00 79 1011.7
20260510020016 46 276 2.0 14.0 0.00 0.18 0.00 79 1011.5
20260510014559 46 281 0.0 10.0 0.00 0.18 0.00 80 1011.5
20260510013031 46 277 1.0 7.0 0.00 0.18 0.00 79 1011.5
20260510011519 46 267 0.0 13.0 0.00 0.18 0.00 79 1011.8
20260510010059 46 232 2.0 14.0 0.00 0.18 0.00 79 1011.9
20260510004548 46 311 3.0 9.0 0.00 0.18 0.00 79 1012.1
20260510003043 46 312 5.0 15.0 0.00 0.18 0.00 79 1012.1
20260510001536 46 281 4.0 11.0 0.00 0.18 0.00 80 1012.3
20260510000028 46 275 3.0 11.0 0.00 0.18 0.00 80 1012.2
20260509234524 46 290 1.0 11.0 0.00 0.18 0.00 80 1012.3
20260509233102 46 278 3.0 9.0 0.00 0.18 0.00 80 1012.3
20260509231535 46 315 1.0 10.0 0.00 0.18 0.00 81 1012.5
20260509230036 46 275 1.0 10.0 0.00 0.18 0.00 82 1012.5
20260509224522 45 310 1.0 9.0 0.00 0.18 0.00 83 1012.4
20260509223102 45 279 0.0 4.0 0.00 0.18 0.00 84 1012.4
20260509221538 45 283 0.0 5.0 0.00 0.18 0.00 84 1012.3
20260509220008 45 294 0.0 0.0 0.00 0.18 0.18 84 1012.4
20260509214546 46 298 0.0 3.0 0.00 0.18 0.18 83 1012.2
20260509213040 46 299 0.0 4.0 0.00 0.18 0.18 83 1012.1
20260509211537 46 292 0.0 5.0 0.00 0.18 0.18 85 1012.1
20260509210009 47 290 0.0 4.0 0.00 0.18 0.18 85 1012.3
20260509204539 46 305 0.0 0.0 0.00 0.18 0.18 86 1012.2
20260509203017 46 332 0.0 0.0 0.00 0.18 0.18 87 1011.9
20260509201549 46 336 0.0 1.0 0.00 0.18 0.18 87 1011.7
20260509200021 46 278 0.0 2.0 0.01 0.18 0.18 87 1011.4
20260509194523 47 281 0.0 0.0 0.04 0.18 0.18 87 1011.4
20260509193053 47 291 0.0 1.0 0.06 0.18 0.18 88 1011.2
20260509191528 47 329 0.0 1.0 0.09 0.18 0.18 87 1011.1
20260509190019 47 312 0.0 3.0 0.09 0.17 0.17 87 1010.9
20260509184515 47 271 0.0 4.0 0.06 0.14 0.14 87 1010.9
20260509183013 48 313 0.0 0.0 0.06 0.12 0.12 86 1010.5
20260509181551 48 317 0.0 0.0 0.04 0.09 0.09 87 1010.2
20260509180050 48 315 0.0 0.0 0.03 0.09 0.09 85 1010.2
20260509174527 49 283 0.0 8.0 0.02 0.08 0.08 83 1010.1
20260509173029 51 273 1.0 8.0 0.01 0.06 0.06 77 1009.5
20260509171519 54 262 0.0 6.0 0.01 0.06 0.06 75 1009.3
20260509170015 54 286 0.0 0.0 0.04 0.06 0.06 75 1009.1
20260509164549 52 293 0.0 0.0 0.04 0.06 0.06 82 1009.2
20260509163020 49 275 0.0 0.0 0.04 0.06 0.06 83 1009.5
20260509161605 50 279 0.0 7.0 0.03 0.05 0.05 78 1009.7
20260509160031 53 271 2.0 8.0 0.01 0.02 0.02 73 1009.0
20260509154505 55 303 1.0 7.0 0.02 0.02 0.02 65 1008.6
20260509153052 55 288 0.0 8.0 0.02 0.02 0.02 67 1008.6